(202890) = 1991 VN7 = 2002 TX224

Discovered at Kitt Peak on 1991-11-03 by Spacewatch.

Orbit

Orbit type: Main Belt

Note: WebGL enabled browser required.

epoch2022-01-21.0
epoch JD2459600.5
perihelion date2019-02-20.82163
perihelion JD2458535.32163
argument of perihelion (°)311.00905
ascending node (°)61.48007
inclination (°)5.84209
eccentricity0.1426022
perihelion distance (AU)2.6745988
Tisserand w.r.t. Jupiter3.2
ΔV w.r.t. Earth (km/sec)10.4
semimajor axis (AU)3.1194374
mean anomaly (°)190.55124
mean daily motion (°/day)0.17889140
aphelion distance (AU)3.564
period (years)5.51
P-vector [x]0.97289340
P-vector [y]0.23067927
P-vector [z]0.01629434
Q-vector [x]-0.21325980
Q-vector [y]0.86771106
Q-vector [z]0.44899641
absolute magnitude15.51
phase slope0.15
uncertainty0
referenceMPO 695318
observations used437
oppositions16
arc length (days)11139
first opposition used1991
last opposition used2022
residual rms (arc-secs)0.79
perturbers coarse indicatorM-v
perturbers precise indicator003Ek
first observation date used1991-11-03.0
last observation date used2022-05-03.0
computer namePan
JD of orbit computation2456966.861265
perihelion JD uncertainty (days)1.1265E-04
argument of perihelion uncertainty (°)5.5706E-05
ascending node uncertainty (°)5.0709E-05
inclination uncertainty (°)6.9824E-06
eccentricity uncertainty 6.3664E-08
perihelion distance uncertainty (AU)2.0081E-07
Minimum Orbit Intersection Distances (in AU)
for orbit epoch: 2458200.5, reference: MPO410957
Mercury2.32435
Venus1.95217
Earth1.68162
Mars1.2621
Jupiter1.91054
Saturn5.87953
Uranus14.6649
Neptune26.6802

Observations

463 total observations over interval: 1991 11 03.37083 – 2022 05 26.354380
These data are available for download (format description).

Date (UT) J2000 RA J2000 Dec Magn Location Ref
1991 11 03.37083 02 40 09.62 +12 05 00.2   691 – Steward Observatory, Kitt Peak-Spacewatch MPC 20227
1991 11 03.39169 02 40 08.52 +12 04 57.3   691 – Steward Observatory, Kitt Peak-Spacewatch MPC 20227
1991 11 03.41251 02 40 07.41 +12 04 54.6 19.6 V 691 – Steward Observatory, Kitt Peak-Spacewatch MPC 20227
1991 11 05.36808 02 38 26.15 +12 01 19.2   691 – Steward Observatory, Kitt Peak-Spacewatch MPC 20227
1991 11 05.37879 02 38 25.57 +12 01 18.8 20.1 V 691 – Steward Observatory, Kitt Peak-Spacewatch MPC 20227
1991 11 05.38969 02 38 24.97 +12 01 18.1   691 – Steward Observatory, Kitt Peak-Spacewatch MPC 20227
1991 11 08.38409 02 35 50.88 +11 56 02.1   691 – Steward Observatory, Kitt Peak-Spacewatch MPC 20227
1991 11 08.40460 02 35 49.79 +11 56 00.7 19.6 V 691 – Steward Observatory, Kitt Peak-Spacewatch MPC 20227
1991 11 08.42522 02 35 48.72 +11 55 58.7   691 – Steward Observatory, Kitt Peak-Spacewatch MPC 20227
2002 10 08.31909 02 39 53.69 +10 48 36.7 18.8 R 699 – Lowell Observatory-LONEOS MPS 64188
2002 10 08.33664 02 39 52.96 +10 48 35.9   699 – Lowell Observatory-LONEOS MPS 64188
2002 10 08.35421 02 39 52.27 +10 48 34.4   699 – Lowell Observatory-LONEOS MPS 64188
2002 10 08.37178 02 39 51.66 +10 48 31.3   699 – Lowell Observatory-LONEOS MPS 64188
2002 10 09.33016 02 39 15.52 +10 46 45.2 19.4   704 – Lincoln Laboratory ETS, New Mexico MPS 64188
2002 10 09.34574 02 39 14.92 +10 46 42.7 19.5   704 – Lincoln Laboratory ETS, New Mexico MPS 64188
2002 10 09.36152 02 39 14.24 +10 46 42.7 20.1   704 – Lincoln Laboratory ETS, New Mexico MPS 64188
2002 10 09.39312 02 39 13.09 +10 46 37.7 19.8   704 – Lincoln Laboratory ETS, New Mexico MPS 64188
2002 10 11.31526 02 37 57.34 +10 42 53.3 18.9   704 – Lincoln Laboratory ETS, New Mexico MPS 66175
2002 10 11.33031 02 37 56.70 +10 42 52.6 19.5   704 – Lincoln Laboratory ETS, New Mexico MPS 66175
2002 10 11.34661 02 37 56.09 +10 42 51.4 19.4   704 – Lincoln Laboratory ETS, New Mexico MPS 66175
2002 10 11.36258 02 37 55.36 +10 42 49.2 19.1   704 – Lincoln Laboratory ETS, New Mexico MPS 66175
2002 10 26.52953 02 26 09.95 +10 10 08.8 20.5   608 – Haleakala-AMOS MPS 66175
2002 10 26.54014 02 26 09.41 +10 10 07.0 20.0   608 – Haleakala-AMOS MPS 66175
2002 10 26.55136 02 26 08.85 +10 10 06.3 19.6   608 – Haleakala-AMOS MPS 66175
2002 11 01.52738 02 21 05.16 +09 57 21.7 20.8   608 – Haleakala-AMOS MPS 66175
2002 11 01.53803 02 21 04.59 +09 57 19.8 20.9   608 – Haleakala-AMOS MPS 66175
2002 11 01.54855 02 21 04.04 +09 57 18.9 20.7   608 – Haleakala-AMOS MPS 66175
2002 11 06.17986 02 17 11.75 +09 48 23.5 18.7 R 699 – Lowell Observatory-LONEOS MPS 66175
2002 11 06.20071 02 17 10.77 +09 48 18.7   699 – Lowell Observatory-LONEOS MPS 66175
2002 11 06.22152 02 17 09.64 +09 48 18.1   699 – Lowell Observatory-LONEOS MPS 66175
2002 11 06.24233 02 17 08.63 +09 48 15.6   699 – Lowell Observatory-LONEOS MPS 66175
2002 11 06.25492 02 17 07.95 +09 48 11.3 19.3   704 – Lincoln Laboratory ETS, New Mexico MPS 66175
2002 11 06.27158 02 17 07.03 +09 48 12.3 19.8   704 – Lincoln Laboratory ETS, New Mexico MPS 66175
2002 11 06.28826 02 17 06.24 +09 48 10.6 19.6   704 – Lincoln Laboratory ETS, New Mexico MPS 66175
2002 11 06.30495 02 17 05.38 +09 48 09.4 19.1   704 – Lincoln Laboratory ETS, New Mexico MPS 66175
2002 11 06.46963 02 16 57.18 +09 47 51.7 19.7   608 – Haleakala-AMOS MPS 67385
2002 11 06.48060 02 16 56.63 +09 47 50.0 19.8   608 – Haleakala-AMOS MPS 67385
2002 11 06.49155 02 16 56.06 +09 47 49.2 19.3   608 – Haleakala-AMOS MPS 67385
2002 11 11.25652 02 13 07.72 +09 39 59.5 19.6   704 – Lincoln Laboratory ETS, New Mexico MPS 66175
2002 11 11.27385 02 13 06.65 +09 40 00.4 19.4   704 – Lincoln Laboratory ETS, New Mexico MPS 66175
2002 11 11.29112 02 13 05.76 +09 39 57.5 19.4   704 – Lincoln Laboratory ETS, New Mexico MPS 66175
2002 11 11.30844 02 13 04.97 +09 39 56.6 19.4   704 – Lincoln Laboratory ETS, New Mexico MPS 66175
2002 11 22.22943 02 05 31.14 +09 29 24.5 19.8   644 – Palomar Mountain/NEAT MPS 67385
2002 11 22.25051 02 05 30.25 +09 29 24.1 19.7   644 – Palomar Mountain/NEAT MPS 67385
2002 11 22.27169 02 05 29.54 +09 29 23.2 19.0   644 – Palomar Mountain/NEAT MPS 67385
2004 01 28.37648 08 34 12.57 +26 22 52.6 20.4 V 691 – Steward Observatory, Kitt Peak-Spacewatch MPS 178151
2004 01 28.40491 08 34 11.01 +26 22 58.2 21.1 V 691 – Steward Observatory, Kitt Peak-Spacewatch MPS 178151
2004 01 28.43331 08 34 09.47 +26 23 03.9 21.3 V 691 – Steward Observatory, Kitt Peak-Spacewatch MPS 178151
2007 09 04.34876 22 41 15.14 -18 10 44.3 19.1 V 703 – Catalina Sky Survey MPS 214343
2007 09 04.35631 22 41 14.78 -18 10 45.3 19.4 V 703 – Catalina Sky Survey MPS 214343
2007 09 04.36385 22 41 14.42 -18 10 47.0 19.1 V 703 – Catalina Sky Survey MPS 214343
2007 09 04.37142 22 41 14.02 -18 10 49.4 18.8 V 703 – Catalina Sky Survey MPS 214343
2007 09 14.25527 22 33 45.07 -18 42 36.2 19.4 V 703 – Catalina Sky Survey MPS 215929
2007 09 14.26064 22 33 44.71 -18 42 37.4 19.1 V 703 – Catalina Sky Survey MPS 215929
2007 09 14.26601 22 33 44.46 -18 42 38.4 19.1 V 703 – Catalina Sky Survey MPS 215929
2007 09 14.27137 22 33 44.17 -18 42 39.8 19.4 V 703 – Catalina Sky Survey MPS 215929
2007 09 18.18127 22 31 01.78 -18 51 11.0 18.6 R 699 – Lowell Observatory-LONEOS MPS 215929
2007 09 18.19954 22 31 01.11 -18 51 13.0   699 – Lowell Observatory-LONEOS MPS 215929
2007 09 18.21781 22 31 00.26 -18 51 16.0   699 – Lowell Observatory-LONEOS MPS 215929
2007 09 18.23608 22 30 59.50 -18 51 18.2   699 – Lowell Observatory-LONEOS MPS 215929
2007 10 02.54898 22 23 17.05 -19 00 18.4 20.4 V E12 – Siding Spring Survey MPS 218035
2007 10 02.55914 22 23 16.80 -19 00 19.0 19.7 V E12 – Siding Spring Survey MPS 218035
2007 10 02.56935 22 23 16.54 -19 00 17.8 20.1 V E12 – Siding Spring Survey MPS 218035
2007 10 02.57954 22 23 16.22 -19 00 17.8 19.9 V E12 – Siding Spring Survey MPS 218035
2007 10 11.20813 22 20 45.30 -18 49 08.5   291 – LPL/Spacewatch II MPS 218399
2007 10 11.22239 22 20 45.15 -18 49 06.7   291 – LPL/Spacewatch II MPS 218399
2007 10 11.23802 22 20 44.94 -18 49 04.5   291 – LPL/Spacewatch II MPS 218399
2008 09 02.43972 05 25 29.43 +23 09 44.8 20.5 V 691 – Steward Observatory, Kitt Peak-Spacewatch MPS 255151
2008 09 02.45230 05 25 30.28 +23 09 46.8 20.9 V 691 – Steward Observatory, Kitt Peak-Spacewatch MPS 255151
2008 09 02.46489 05 25 31.11 +23 09 48.3 21.0 V 691 – Steward Observatory, Kitt Peak-Spacewatch MPS 255151
2008 12 06.25834 05 36 28.76 +26 13 20.0 19.3   704 – Lincoln Laboratory ETS, New Mexico MPS 268759
2008 12 06.27089 05 36 28.05 +26 13 19.5 19.5   704 – Lincoln Laboratory ETS, New Mexico MPS 268759
2008 12 06.29617 05 36 26.56 +26 13 22.2 20.0   704 – Lincoln Laboratory ETS, New Mexico MPS 268759
2008 12 06.30868 05 36 25.83 +26 13 23.9 20.1   704 – Lincoln Laboratory ETS, New Mexico MPS 268759
2008 12 19.25666 05 24 08.97 +26 26 58.3 19.7   704 – Lincoln Laboratory ETS, New Mexico MPS 269169
2008 12 19.26931 05 24 08.23 +26 26 59.0 19.9   704 – Lincoln Laboratory ETS, New Mexico MPS 269169
2008 12 19.29461 05 24 06.74 +26 27 00.6 19.9   704 – Lincoln Laboratory ETS, New Mexico MPS 269169
2008 12 19.30757 05 24 06.08 +26 27 00.3 20.1   704 – Lincoln Laboratory ETS, New Mexico MPS 269169
2008 12 30.20611 05 14 27.66 +26 31 55.6 19.6   704 – Lincoln Laboratory ETS, New Mexico MPS 269985
2008 12 30.21896 05 14 27.04 +26 31 55.5 20.0   704 – Lincoln Laboratory ETS, New Mexico MPS 269985
2008 12 30.23194 05 14 26.34 +26 31 56.3 20.2   704 – Lincoln Laboratory ETS, New Mexico MPS 269985
2008 12 30.24474 05 14 25.82 +26 31 56.7 19.9   704 – Lincoln Laboratory ETS, New Mexico MPS 269985
2008 12 30.25754 05 14 25.14 +26 31 55.7 20.2   704 – Lincoln Laboratory ETS, New Mexico MPS 269985
2009 01 21.20159 05 01 53.00 +26 32 17.4 19.8 V G96 – Mt. Lemmon Survey MPS 276244
2009 01 21.20876 05 01 52.86 +26 32 17.5 19.6 V G96 – Mt. Lemmon Survey MPS 276244
2009 01 21.21608 05 01 52.71 +26 32 17.4 19.8 V G96 – Mt. Lemmon Survey MPS 276244
2009 01 21.22340 05 01 52.57 +26 32 17.5 20.0 V G96 – Mt. Lemmon Survey MPS 276244
2010 02 14.516189 10 52 05.778 +15 58 44.91 20.93 g F51 – Pan-STARRS 1, Haleakala MPS 338771
